sat.trackr.live / text

‹ back to catalog

STARLINK-33958

NORAD 63850 · 2025-093Q

PAYLOAD ACTIVE UNKNOWN

§ Identity

Operator
Country
US
Launch date
2025-05-07
Launch site
AFETR
Launch vehicle
Mass (kg)
RCS (m²)

Purposes: comms

External: N2YO · Heavens-Above · Gunter

§ Orbital elements

Epoch: 2026-05-24T21:33:23.904576Z

Period
94.27 min
Inclination
43.0006°
Eccentricity
0.0001421
Mean motion
15.27593794 rev/d
Perigee alt
482.0 km
Apogee alt
484.0 km
Semi-major
6,861.1 km
B*
5.5636e-4
RAAN
7.8307°
Arg perigee
277.1571°
Mean anomaly
82.9119°
Rev number
5,946

§ Raw data

STARLINK-339581 63850U 25093Q   26144.89819334  .00015085  00000+0  55636-3 0  99992 63850  43.0006   7.8307 0001421 277.1571  82.9119 15.27593794 59466

JSON: /api/v1/satellites/63850 · /tle

For live sub-satellite position, see the globe view (requires WebGL).

§ Visibility from observer

Set your observer location to see the next 7 days of passes ≥ 10°. The values pass through the URL so the page stays shareable.

No JS? Fill the form by hand. The geolocation button needs JavaScript.